• In Italy
  • List of Countries
  • For 7 days
  • Water Temperature
  • Satellite Maps
  • Weather Map
  • Weather Widgets
  • user-avatar
    Login

    Hourly Weather Santa Fe

    Today, 21 July, Saturday

    Time Temperature Precipitation Wind Pressure Humidity
    00:00 +4°C° 0 mm 3 mps 765 mmHg 64%
    01:00 +5°C° 0 mm 2 mps 765 mmHg 63%
    02:00 +5°C° 0 mm 2 mps 765 mmHg 63%
    03:00 +4°C° 0 mm 2 mps 765 mmHg 62%
    04:00 +4°C° 0 mm 2 mps 765 mmHg 62%
    05:00 +4°C° 0 mm 2 mps 765 mmHg 62%
    06:00 +4°C° 0 mm 2 mps 765 mmHg 63%
    07:00 +5°C° 0 mm 2 mps 766 mmHg 63%
    08:00 +4°C° 0 mm 3 mps 766 mmHg 63%
    09:00 +7°C° 0 mm 3 mps 766 mmHg 58%
    10:00 +10°C° 0 mm 4 mps 766 mmHg 53%
    11:00 +12°C° 0 mm 4 mps 766 mmHg 47%
    12:00 +13°C° 0 mm 4 mps 765 mmHg 45%
    13:00 +14°C° 0 mm 4 mps 764 mmHg 43%
    14:00 +16°C° 0 mm 3 mps 763 mmHg 41%
    15:00 +14°C° 0 mm 3 mps 762 mmHg 46%
    16:00 +13°C° 0 mm 3 mps 762 mmHg 51%
    17:00 +12°C° 0 mm 3 mps 761 mmHg 57%
    18:00 +11°C° 0 mm 3 mps 761 mmHg 58%
    19:00 +10°C° 0 mm 3 mps 761 mmHg 60%
    20:00 +8°C° 0 mm 4 mps 761 mmHg 61%
    21:00 +8°C° 0 mm 4 mps 761 mmHg 61%
    22:00 +8°C° 0 mm 4 mps 761 mmHg 61%
    23:00 +7°C° 0 mm 5 mps 760 mmHg 61%

    Tomorrow, 22 July, Sunday

    Time Temperature Precipitation Wind Pressure Humidity
    00:00 +7°C° 0 mm 5 mps 760 mmHg 63%
    01:00 +7°C° 0 mm 5 mps 760 mmHg 65%
    02:00 +7°C° 0 mm 5 mps 759 mmHg 67%
    03:00 +6°C° 0 mm 4 mps 759 mmHg 68%
    04:00 +6°C° 0 mm 4 mps 759 mmHg 70%
    05:00 +6°C° 0 mm 4 mps 758 mmHg 71%
    06:00 +7°C° 0 mm 3 mps 759 mmHg 73%
    07:00 +7°C° 0 mm 3 mps 760 mmHg 74%
    08:00 +7°C° 0 mm 3 mps 760 mmHg 75%
    09:00 +9°C° 0 mm 3 mps 761 mmHg 69%
    10:00 +11°C° 0 mm 3 mps 761 mmHg 62%
    11:00 +13°C° 0 mm 3 mps 761 mmHg 56%
    12:00 +15°C° 0 mm 2 mps 761 mmHg 53%
    13:00 +16°C° 0 mm 2 mps 761 mmHg 49%
    14:00 +18°C° 0 mm 1 mps 761 mmHg 46%
    15:00 +16°C° 0 mm 2 mps 761 mmHg 51%
    16:00 +15°C° 0 mm 2 mps 761 mmHg 56%
    17:00 +15°C° 0 mm 2 mps 762 mmHg 60%
    18:00 +12°C° 0 mm 3 mps 763 mmHg 63%
    19:00 +11°C° 0 mm 3 mps 763 mmHg 66%
    20:00 +10°C° 0 mm 3 mps 764 mmHg 68%
    21:00 +10°C° 0 mm 4 mps 765 mmHg 70%
    22:00 +8°C° 0 mm 4 mps 767 mmHg 71%
    23:00 +8°C° 0 mm 4 mps 768 mmHg 73%

    Day after tomorrow, 23 July, Monday

    Time Temperature Precipitation Wind Pressure Humidity
    00:00 +8°C° 0 mm 4 mps 768 mmHg 71%
    01:00 +7°C° 0 mm 4 mps 768 mmHg 69%
    02:00 +7°C° 0 mm 4 mps 769 mmHg 68%
    03:00 +6°C° 0 mm 4 mps 769 mmHg 63%
    04:00 +6°C° 0 mm 4 mps 769 mmHg 58%
    05:00 +5°C° 0 mm 4 mps 770 mmHg 53%
    06:00 +5°C° 0 mm 4 mps 771 mmHg 53%
    07:00 +5°C° 0 mm 4 mps 771 mmHg 53%
    08:00 +5°C° 0 mm 4 mps 772 mmHg 54%
    09:00 +7°C° 0 mm 4 mps 773 mmHg 49%
    10:00 +8°C° 0 mm 5 mps 773 mmHg 44%
    11:00 +10°C° 0 mm 5 mps 773 mmHg 39%
    12:00 +10°C° 0 mm 5 mps 773 mmHg 39%
    13:00 +12°C° 0 mm 5 mps 772 mmHg 38%
    14:00 +12°C° 0 mm 4 mps 772 mmHg 38%
    15:00 +11°C° 0 mm 4 mps 772 mmHg 42%
    16:00 +10°C° 0 mm 3 mps 772 mmHg 46%
    17:00 +9°C° 0 mm 3 mps 772 mmHg 51%
    18:00 +8°C° 0 mm 3 mps 772 mmHg 53%
    19:00 +7°C° 0 mm 3 mps 772 mmHg 56%
    20:00 +5°C° 0 mm 3 mps 773 mmHg 59%
    21:00 +6°C° 0 mm 2 mps 773 mmHg 62%
    22:00 +6°C° 0 mm 2 mps 773 mmHg 65%
    23:00 +5°C° 0 mm 2 mps 773 mmHg 68%

    24 July, Tuesday

    Time Temperature Precipitation Wind Pressure Humidity
    00:00 +5°C° 0 mm 2 mps 773 mmHg 70%
    01:00 +4°C° 0 mm 3 mps 773 mmHg 72%
    02:00 +3°C° 0 mm 3 mps 773 mmHg 75%
    03:00 +3°C° 0 mm 3 mps 772 mmHg 77%
    04:00 +3°C° 0 mm 3 mps 772 mmHg 79%
    05:00 +3°C° 0 mm 3 mps 772 mmHg 81%
    06:00 +3°C° 0 mm 3 mps 772 mmHg 81%
    07:00 +3°C° 0 mm 3 mps 772 mmHg 81%
    08:00 +4°C° 0 mm 4 mps 773 mmHg 81%
    09:00 +6°C° 0 mm 4 mps 772 mmHg 72%
    10:00 +7°C° 0 mm 4 mps 772 mmHg 63%
    11:00 +10°C° 0 mm 4 mps 772 mmHg 55%
    12:00 +11°C° 0 mm 4 mps 771 mmHg 53%
    13:00 +12°C° 0 mm 4 mps 770 mmHg 52%
    14:00 +13°C° 0 mm 4 mps 769 mmHg 50%
    15:00 +12°C° 0 mm 3 mps 769 mmHg 56%
    16:00 +11°C° 0 mm 3 mps 769 mmHg 62%
    17:00 +10°C° 0 mm 3 mps 769 mmHg 68%
    18:00 +10°C° 0 mm 3 mps 769 mmHg 72%
    19:00 +9°C° 0 mm 3 mps 769 mmHg 76%
    20:00 +8°C° 0 mm 3 mps 769 mmHg 81%
    21:00 +8°C° 0 mm 3 mps 769 mmHg 82%
    22:00 +9°C° 0 mm 3 mps 769 mmHg 82%
    23:00 +9°C° 0 mm 3 mps 769 mmHg 83%

    25 July, Wednesday

    Time Temperature Precipitation Wind Pressure Humidity
    00:00 +9°C° 0 mm 3 mps 769 mmHg 84%
    01:00 +9°C° 0 mm 2 mps 769 mmHg 84%
    02:00 +9°C° 0 mm 2 mps 768 mmHg 85%
    03:00 +9°C° 0 mm 2 mps 768 mmHg 85%
    04:00 +9°C° 0 mm 3 mps 768 mmHg 86%
    05:00 +9°C° 0 mm 3 mps 768 mmHg 87%
    06:00 +9°C° 0 mm 3 mps 768 mmHg 87%
    07:00 +9°C° 0 mm 3 mps 768 mmHg 88%
    08:00 +9°C° 0 mm 3 mps 768 mmHg 88%
    09:00 +11°C° 0 mm 3 mps 768 mmHg 83%
    10:00 +12°C° 0 mm 3 mps 768 mmHg 77%
    11:00 +14°C° 0 mm 3 mps 768 mmHg 72%
    12:00 +14°C° 0 mm 3 mps 767 mmHg 71%
    13:00 +14°C° 0 mm 3 mps 767 mmHg 71%
    14:00 +16°C° 0 mm 3 mps 766 mmHg 71%
    15:00 +14°C° 0 mm 3 mps 766 mmHg 73%
    16:00 +15°C° 0 mm 2 mps 765 mmHg 76%
    17:00 +14°C° 0 mm 2 mps 765 mmHg 79%
    18:00 +14°C° 0 mm 2 mps 765 mmHg 81%
    19:00 +13°C° 0 mm 2 mps 765 mmHg 83%
    20:00 +13°C° 0 mm 2 mps 765 mmHg 86%
    21:00 +13°C° 0 mm 2 mps 765 mmHg 87%
    22:00 +13°C° 0 mm 1 mps 765 mmHg 88%
    23:00 +13°C° 0 mm 1 mps 765 mmHg 88%

    26 July, Thursday

    Time Temperature Precipitation Wind Pressure Humidity
    00:00 +12°C° 0 mm 1 mps 765 mmHg 89%
    01:00 +12°C° 0 mm 1 mps 764 mmHg 90%
    02:00 +12°C° 0 mm 1 mps 764 mmHg 90%
    03:00 +12°C° 0 mm 1 mps 764 mmHg 92%
    04:00 +12°C° 0 mm 1 mps 763 mmHg 93%
    05:00 +11°C° 0 mm 1 mps 763 mmHg 94%
    06:00 +11°C° 0 mm 1 mps 763 mmHg 93%
    07:00 +11°C° 0 mm 0 mps 763 mmHg 92%
    08:00 +11°C° 0 mm 0 mps 763 mmHg 91%
    09:00 +12°C° 0 mm 0 mps 763 mmHg 88%
    10:00 +12°C° 0 mm 0 mps 763 mmHg 86%
    11:00 +13°C° 0 mm 0 mps 763 mmHg 83%
    12:00 +13°C° 0 mm 0 mps 763 mmHg 82%
    13:00 +13°C° 0 mm 0 mps 762 mmHg 81%
    14:00 +13°C° 0 mm 0 mps 762 mmHg 79%
    15:00 +13°C° 0 mm 0 mps 761 mmHg 81%
    16:00 +14°C° 0 mm 1 mps 761 mmHg 83%
    17:00 +13°C° 0 mm 1 mps 761 mmHg 85%
    18:00 +13°C° 0 mm 1 mps 761 mmHg 85%
    19:00 +13°C° 0 mm 1 mps 762 mmHg 84%
    20:00 +13°C° 0 mm 1 mps 762 mmHg 84%
    21:00 +13°C° 0 mm 1 mps 762 mmHg 84%
    22:00 +13°C° 0 mm 1 mps 762 mmHg 84%
    23:00 +13°C° 0 mm 1 mps 762 mmHg 84%
    Show more